Weather History for Gwinn, MI

Change the Weather History Date:

Sunday, May 18, 2014

  Actual Average (KESC) Record (KESC)
Temperature  
Mean Temperature 50 °F -  
Max Temperature 66 °F 58 °F 80 °F (1955)
Min Temperature 33 °F 43 °F 28 °F (2014)
Degree Days  
Heating Degree Days 16    
Moisture  
Dew Point 35 °F    
Average Humidity 65    
Maximum Humidity 88    
Minimum Humidity 28    
Precipitation  
Precipitation 0.00 in - - ()
Sea Level Pressure  
Sea Level Pressure 30.03 in    
Wind  
Wind Speed 3 mph (SSW)    
Max Wind Speed 16 mph    
Max Gust Speed 21 mph    
Visibility 10 miles    
Events Rain    
Averages and records for this station are not official NWS values.
T = Trace of Precipitation, MM = Missing Value Source: NWS Daily Summary

Daily Weather History Graph

Daily Weather History Graph

Search for Another Location

Airport:

Trip Planner

Search our weather history database for the weather conditions in past years. The results will help you decide how hot, cold, wet, or windy it might be!

Date:

Astronomy

May. 18, 2014 Rise Set
Actual Time 6:12 AM EDT 9:19 PM EDT
Civil Twilight 5:37 AM EDT 9:55 PM EDT
Nautical Twilight 4:50 AM EDT 10:42 PM EDT
Astronomical Twilight 3:54 AM EDT 11:39 PM EDT
Moon 12:17 AM EDT (5/18) 10:03 AM EDT (5/18)
Length of Visible Light 16h 18m
Length of Day
15h 06m
Waning Gibbous, 81% of the Moon is Illuminated
May 18
Waning Gibbous
May 21
Last Quarter
May 28
New
Jun 5
First Quarter
Jun 13
Full

Hourly Weather History & Observations

Time (EDT) Temp. Windchill Dew Point Humidity Pressure Visibility Wind Dir Wind Speed Gust Speed Precip Events Conditions
12:17 AM 39.7 °F - 32.7 °F 76% 29.99 in 10.0 mi Calm Calm - N/A   Clear
12:37 AM 39.2 °F 37.0 °F 32.5 °F 77% 29.99 in 10.0 mi South 3.5 mph - N/A   Clear
12:56 AM 39.2 °F 37.0 °F 32.4 °F 76% 29.99 in 10.0 mi South 3.5 mph - N/A   Clear
1:17 AM 38.3 °F - 32.4 °F 79% 30.00 in 10.0 mi Calm Calm - N/A   Clear
1:36 AM 38.1 °F - 32.2 °F 79% 30.00 in 10.0 mi Calm Calm - N/A   Clear
1:57 AM 37.9 °F - 32.4 °F 80% 29.99 in 10.0 mi Calm Calm - N/A   Clear
2:16 AM 38.1 °F - 32.2 °F 79% 29.99 in 10.0 mi Calm Calm - N/A   Clear
2:37 AM 37.0 °F - 32.0 °F 82% 29.99 in 10.0 mi Calm Calm - N/A   Clear
2:57 AM 36.5 °F 33.9 °F 32.0 °F 84% 29.99 in 10.0 mi SSW 3.5 mph - N/A   Clear
3:17 AM 36.0 °F 33.3 °F 32.0 °F 86% 29.99 in 10.0 mi SSW 3.5 mph - N/A   Clear
3:37 AM 35.8 °F - 32.0 °F 86% 29.99 in 10.0 mi Calm Calm - N/A   Clear
3:56 AM 34.7 °F - 30.7 °F 85% 29.99 in 10.0 mi Calm Calm - N/A   Clear
4:17 AM 33.4 °F - 30.2 °F 88% 29.99 in 10.0 mi Calm Calm - N/A   Clear
4:36 AM 34.3 °F - 30.6 °F 86% 29.99 in 10.0 mi Calm Calm - N/A   Clear
4:57 AM 35.6 °F - 31.6 °F 85% 30.00 in 10.0 mi Calm Calm - N/A   Clear
5:17 AM 36.1 °F - 31.1 °F 82% 29.99 in 10.0 mi Calm Calm - N/A   Clear
5:37 AM 35.6 °F - 30.9 °F 83% 29.99 in 10.0 mi Calm Calm - N/A   Clear
5:57 AM 35.4 °F 32.6 °F 30.6 °F 82% 30.00 in 10.0 mi South 3.5 mph - N/A   Clear
6:51 AM 37.4 °F 34.9 °F 30.2 °F 75% 30.01 in 10.0 mi SSW 3.5 mph - N/A   Clear
7:51 AM 39.2 °F 37.0 °F 32.0 °F 75% 30.01 in 10.0 mi South 3.5 mph - N/A   Scattered Clouds
8:45 AM 44.6 °F 43.1 °F 32.0 °F 61% 30.02 in 10.0 mi SW 3.5 mph - N/A   Clear
9:45 AM 53.6 °F - 32.0 °F 44% 30.03 in 10.0 mi WSW 9.2 mph - N/A   Clear
10:45 AM 60.8 °F - 35.6 °F 39% 30.03 in 10.0 mi West 8.1 mph - N/A   Clear
11:47 AM 64.4 °F - 33.8 °F 32% 30.03 in 10.0 mi West 13.8 mph 18.4 mph N/A   Clear
12:45 PM 66.2 °F - 32.0 °F 28% 30.03 in 10.0 mi WNW 8.1 mph - N/A   Mostly Cloudy
1:45 PM 62.6 °F - 33.8 °F 34% 30.04 in 10.0 mi NE 15.0 mph 20.7 mph N/A   Mostly Cloudy
2:45 PM 62.6 °F - 33.8 °F 34% 30.05 in 10.0 mi NNE 16.1 mph - N/A   Overcast
3:55 PM 64.4 °F - 33.8 °F 32% 30.05 in 10.0 mi SSE 3.5 mph - N/A   Scattered Clouds
4:50 PM 66.2 °F - 35.6 °F 32% 30.04 in 10.0 mi Calm Calm - N/A Rain Light Rain
5:55 PM 64.4 °F - 37.4 °F 37% 30.06 in 10.0 mi SE 10.4 mph - N/A   Mostly Cloudy
6:50 PM 62.6 °F - 39.2 °F 42% 30.05 in 10.0 mi South 11.5 mph - N/A   Mostly Cloudy
7:50 PM 62.6 °F - 41.0 °F 45% 30.06 in 10.0 mi SSW 12.7 mph - N/A   Clear
8:50 PM 59.0 °F - 41.0 °F 51% 30.06 in 10.0 mi South 4.6 mph - N/A   Scattered Clouds
9:50 PM 55.4 °F - 42.8 °F 63% 30.07 in 10.0 mi SE 4.6 mph - N/A   Scattered Clouds
10:17 PM 54.3 °F - 41.9 °F 63% 30.08 in 10.0 mi Calm Calm - N/A   Scattered Clouds
10:37 PM 54.5 °F - 41.9 °F 62% 30.08 in 10.0 mi SSE 4.6 mph - N/A   Scattered Clouds
10:57 PM 53.6 °F - 42.1 °F 65% 30.08 in 10.0 mi South 3.5 mph - N/A   Scattered Clouds
11:17 PM 51.8 °F - 41.4 °F 68% 30.09 in 10.0 mi Calm Calm - N/A   Mostly Cloudy
11:37 PM 50.9 °F - 41.2 °F 69% 30.09 in 10.0 mi Calm Calm - N/A   Overcast
11:56 PM 51.8 °F - 41.9 °F 69% 30.09 in 10.0 mi Calm Calm - N/A   Scattered Clouds